| Date | Time | Temp. (oF) | Dew Point (oF) | Rel. Hum. (%) | Press. (in.) | Wind Dir. (deg.) | Wind Speed (mph) | Hourly Rainfall (i n.) |
|
|---|---|---|---|---|---|---|---|---|---|
| 1 | 12/14 | 24:00 | 39 | 36 | 91 | 30.14 | 50 | 1 | 0.00 |
| 2 | 12/13 | 23:00 | 39 | 36 | 92 | 30.16 | 10 | 2 | 0.00 |
| 3 | 12/13 | 22:00 | 39 | 37 | 93 | 30.13 | 20 | 2 | 0.00 |
| 4 | 12/13 | 21:00 | 39 | 37 | 93 | 30.13 | 30 | 0 | 0.00 |
| 5 | 12/13 | 20:00 | 39 | 37 | 93 | 30.14 | 30 | 0 | 0.02 |
| 6 | 12/13 | 19:00 | 39 | 37 | 93 | 30.12 | 50 | 1 | 0.05 |
| 7 | 12/13 | 18:00 | 40 | 38 | 93 | 30.12 | 10 | 1 | 0.06 |
| 8 | 12/13 | 17:00 | 41 | 38 | 92 | 30.10 | 110 | 0 | 0.07 |
| 9 | 12/13 | 16:00 | 41 | 38 | 91 | 30.11 | 110 | 0 | 0.02 |
| 10 | 12/13 | 15:00 | 41 | 38 | 89 | 30.09 | 110 | 0 | 0.02 |
| 11 | 12/13 | 14:00 | 42 | 38 | 86 | 30.10 | 110 | 0 | 0.01 |
| 12 | 12/13 | 13:00 | 41 | 35 | 82 | 30.12 | 110 | 0 | 0.01 |
| 13 | 12/13 | 12:00 | 40 | 34 | 80 | 30.13 | 110 | 1 | 0.00 |
| 14 | 12/13 | 11:00 | 41 | 32 | 72 | 30.15 | 110 | 1 | 0.00 |
| 15 | 12/13 | 10:00 | 39 | 31 | 74 | 30.16 | 110 | 0 | 0.00 |
| 16 | 12/13 | 09:00 | 37 | 30 | 78 | 30.16 | 110 | 0 | 0.00 |
| 17 | 12/13 | 08:00 | 34 | 28 | 81 | 30.14 | 110 | 0 | 0.00 |
| 18 | 12/13 | 07:00 | 32 | 26 | 81 | 30.13 | 110 | 0 | 0.00 |
| 19 | 12/13 | 06:00 | 31 | 27 | 85 | 30.12 | 110 | 0 | 0.00 |
| 20 | 12/13 | 05:00 | 29 | 25 | 87 | 30.12 | 110 | 0 | 0.00 |
| 21 | 12/13 | 04:00 | 28 | 24 | 88 | 30.13 | 110 | 1 | 0.00 |
| 22 | 12/13 | 03:00 | 28 | 24 | 88 | 30.15 | 110 | 1 | 0.00 |
| 23 | 12/13 | 02:00 | 29 | 25 | 87 | 30.14 | 110 | 0 | 0.00 |
| 24 | 12/13 | 01:00 | 29 | 25 | 86 | 30.16 | 110 | 0 | 0.00 |